Wetbulb
50.79 51.18 51.28 52.29 53.35 53.78 54.17 54.30 52.37 49.25 50.94 55.97 56.43 60.03 61.25 61.94 60.59 62.00 61.28 58.07 58.30 59.34 60.19 60.62 60.74 61.06 61.62 62.44 63.19 63.94 64.41 64.31 64.46 64.96 65.15 64.74 64.83 65.53
50.90 50.58 51.25 52.42 52.77 54.01 53.86 53.95 53.77 51.94 49.57 55.14 56.27 58.83 59.76 59.65 59.90 60.83 61.09 55.06 56.20 57.95 58.40 57.84 58.05 58.58 59.02 59.59 60.34 61.13 61.90 62.72 63.84 64.71 65.48 65.25 65.11 64.67
50.01 50.63 51.00 52.32 52.24 52.83 53.78 53.48 53.46 53.51 50.47 53.28 56.84 57.91 58.25 58.78 58.78 59.80 59.80 60.52 60.46 55.65 57.55 57.50 56.95 56.76 57.00 57.34 58.00 58.93 59.69 60.91 62.13 63.63 64.53 64.59 64.67 64.40
48.37 48.92 49.36 50.87 51.24 52.00 51.97 52.39 52.26 53.63 52.20 50.94 54.79 55.98 56.85 58.35 59.04 58.99 58.49 58.39 59.91 56.61 56.21 56.46 56.52 56.51 56.52 56.37 56.32 56.85 57.14 57.85 58.97 60.48 61.70 62.82 63.33 63.31
48.50 48.58 49.20 49.88 50.01 50.93 51.10 51.53 52.41 52.44 53.36 52.93 52.80 56.10 56.92 57.02 56.89 57.28 57.58 58.07 58.04 54.23 55.92 56.10 56.53 56.31 56.12 56.04 55.80 55.52 55.20 55.49 56.34 56.89 57.85 59.17 60.73 61.87
46.63 47.31 48.19 49.60 50.06 50.82 51.32 51.12 51.57 51.43 52.95 52.21 53.27 53.63 55.09 55.56 56.13 55.86 55.08 55.84 56.55 55.79 54.71 55.14 55.84 55.37 55.52 55.93 54.92 53.61 53.18 53.79 55.06 55.75 55.86 55.64 56.25 58.15
44.95 46.25 48.64 49.57 48.38 50.42 51.88 52.53 52.51 51.90 51.55 51.57 51.99 52.95 53.39 52.91 53.05 55.16 54.24 55.75 56.43 56.38 56.57 57.37 57.00 57.92 57.18 55.13 53.84 52.20 52.37 52.99 53.72 54.62 55.42 55.37 54.79 55.23
42.43 45.39 47.97 47.72 49.79 49.27 50.10 50.21 52.07 52.85 52.13 52.00 52.25 51.42 52.04 52.91 53.97 54.39 54.38 53.42 51.96 56.66 55.37 54.99 55.00 55.77 56.56 56.75 54.65 53.24 52.77 52.50 52.97 53.32 53.55 53.88 53.83 53.63
42.04 43.69 46.45 48.80 48.95 49.49 50.00 50.16 50.14 49.66 51.08 53.77 52.44 52.55 52.33 53.52 54.18 53.45 53.74 53.66 53.56 54.98 55.26 53.39 52.99 54.13 56.80 55.90 52.62 52.11 52.04 51.92 51.63 51.77 51.91 51.92 52.08 52.34
41.84 44.29 46.09 47.09 48.10 47.89 49.26 49.88 48.61 46.66 48.67 51.07 52.73 52.08 49.52 48.54 50.56 51.65 52.86 53.62 54.54 50.96 50.40 49.35 51.95 53.74 53.59 51.10 48.80 50.23 50.14 50.18 50.13 50.20 50.32 50.05 49.62 50.02
40.68 41.65 42.55 42.75 44.17 45.30 46.80 47.02 43.50 42.04 43.15 43.04 42.33 41.74 41.43 41.48 42.49 46.09 45.44 45.84 46.51 44.02 38.94 42.51 41.84 42.38 44.95 44.68 43.80 44.43 44.81 45.49 43.48 42.56 42.48 42.41 42.53 43.39
38.23 38.67 40.33 40.53 42.26 43.12 44.79 45.86 41.88 40.00 38.80 37.65 37.17 36.68 36.73 36.60 37.67 37.10 37.42 36.25 36.00 35.45 35.00 37.02 37.03 36.55 37.95 39.00 40.47 38.98 39.45 39.16 39.25 39.43 40.18 39.86 40.05 41.22
34.66 35.26 36.68 38.85 39.10 39.92 40.37 39.16 39.19 38.59 37.04 34.81 33.90 33.76 33.54 33.16 33.14 33.79 33.90 33.98 33.36 33.29 34.03 34.71 33.89 35.21 33.92 34.08 35.13 36.04 36.20 36.14 36.53 36.82 36.94 37.27 38.46 38.93
33.75 34.42 35.23 35.96 36.01 36.82 36.20 37.49 37.07 35.29 33.69 32.31 31.16 30.40 30.37 30.40 31.06 31.60 31.48 31.77 32.53 32.14 33.21 33.60 32.15 33.35 32.18 31.13 31.12 32.74 33.76 35.23 35.99 35.56 37.02 36.46 36.29 36.11
33.90 34.00 33.78 33.06 32.79 32.51 34.64 34.89 33.22 30.93 30.36 29.37 28.77 28.73 29.74 30.76 31.06 30.60 30.40 30.20 30.91 31.06 31.21 31.90 31.93 31.86 31.90 31.39 31.93 32.22 32.59 34.22 34.80 35.16 35.10 35.21 35.50 36.17
29.86 30.78 30.85 30.63 30.98 30.10 29.48 29.26 29.54 30.52 29.18 28.61 28.46 29.39 30.57 30.76 30.14 29.91 28.45 29.37 29.43 29.90 30.95 31.75 30.36 30.69 30.25 30.89 30.48 29.87 32.22 30.50 33.70 33.68 34.08 34.55 35.48 36.04
29.64 29.04 28.41 27.83 27.29 27.37 27.52 27.94 28.32 27.80 27.61 28.31 28.20 28.15 28.47 28.97 29.16 29.92 28.86 28.40 27.48 27.67 28.79 31.03 30.89 29.90 30.50 30.41 28.82 30.40 30.71 31.29 33.13 33.28 32.68 32.75 34.23 34.76
27.94 26.76 26.12 26.04 25.26 25.26 25.37 25.78 26.33 25.95 25.79 26.93 27.26 27.48 27.15 27.09 27.98 28.28 29.16 28.20 27.56 28.16 28.56 30.32 30.39 29.73 30.91 31.69 31.81 30.26 30.22 30.78 33.07 33.15 32.75 31.15 31.21 33.96
26.38 26.13 25.55 25.31 24.97 24.52 24.06 24.31 23.88 24.67 24.94 24.96 25.24 26.24 27.15 27.57 27.30 27.37 28.00 28.16 27.71 28.56 29.51 30.52 29.69 27.83 26.28 25.42 31.62 33.74 31.03 32.14 32.18 32.06 32.27 31.13 29.59 30.88
25.83 25.48 25.10 24.93 24.12 22.94 22.70 22.47 22.35 23.68 23.32 23.08 23.37 24.35 25.25 26.28 26.86 27.15 27.56 27.40 28.22 28.89 28.32 29.12 29.77 29.42 27.40 27.40 28.40 32.18 33.16 31.95 31.58 30.60 29.62 31.42 31.14 31.97
25.20 24.97 25.29 24.74 23.92 22.37 21.87 21.49 21.21 23.08 22.38 22.85 23.74 24.71 25.35 25.75 25.95 26.76 27.14 27.95 28.72 27.48 26.42 27.20 30.11 33.05 32.08 31.94 28.36 29.22 31.80 31.09 31.59 29.79 29.29 27.69 26.69 28.68
24.99 24.89 25.16 25.30 23.34 22.05 21.27 20.04 20.27 20.91 22.99 23.87 24.44 25.07 25.62 26.24 26.05 26.45 27.03 26.71 27.11 27.41 27.59 29.42 31.05 31.53 30.59 28.90 27.54 26.95 26.52 29.07 29.56 29.98 31.25 30.94 28.29 25.35
24.97 24.97 25.09 25.12 24.15 22.25 20.53 19.78 18.90 19.71 22.91 24.08 24.67 23.96 24.43 25.22 26.62 27.51 27.80 27.81 27.64 27.36 27.97 27.86 29.46 28.88 27.66 26.34 25.97 24.94 25.35 23.98 27.13 28.35 29.87 31.28 31.98 32.03
MSLP
1009.71 1009.45 1009.20 1008.93 1008.80 1008.53 1008.26 1008.02 1007.79 1007.16 1006.66 1006.62 1006.59 1006.54 1006.68 1006.79 1006.96 1007.40 1007.69 1008.07 1008.49 1008.52 1008.54 1009.28 1009.25 1009.31 1009.62 1009.48 1009.81 1010.22 1010.38 1010.55 1010.64 1010.78 1011.04 1011.37 1011.60 1011.74
1008.99 1008.76 1008.46 1008.18 1007.90 1007.70 1007.47 1007.28 1007.05 1006.79 1006.35 1006.20 1006.03 1005.99 1006.29 1006.44 1006.37 1006.65 1006.64 1006.98 1007.40 1007.68 1007.81 1008.31 1008.61 1008.34 1008.93 1008.91 1008.78 1009.50 1009.77 1009.89 1009.81 1010.01 1010.06 1010.34 1010.58 1010.80
1008.29 1008.05 1007.63 1007.37 1007.03 1006.87 1006.61 1006.35 1006.19 1006.02 1005.70 1005.56 1005.85 1005.66 1005.81 1005.74 1006.07 1006.29 1006.24 1006.40 1006.53 1007.10 1007.42 1007.76 1007.77 1007.70 1007.96 1008.22 1008.31 1008.35 1008.98 1009.14 1009.08 1009.34 1009.15 1009.32 1009.55 1009.86
1007.72 1007.38 1006.86 1006.49 1006.14 1005.87 1005.71 1005.56 1005.41 1005.27 1005.17 1004.75 1005.02 1005.16 1005.20 1005.18 1005.41 1005.59 1005.72 1005.84 1006.02 1006.28 1006.60 1006.85 1007.10 1007.13 1007.27 1007.53 1007.53 1007.92 1007.60 1008.25 1008.15 1008.52 1008.15 1008.47 1008.62 1008.85
1007.41 1006.99 1006.28 1005.89 1005.23 1004.82 1004.37 1004.34 1004.22 1004.17 1003.93 1003.99 1004.23 1004.50 1004.55 1004.94 1005.07 1005.16 1005.07 1005.17 1005.46 1005.76 1005.98 1006.08 1006.30 1006.48 1006.70 1006.77 1006.89 1006.81 1006.69 1007.27 1007.23 1007.21 1007.02 1007.58 1007.78 1007.94
1007.12 1006.59 1005.86 1005.13 1004.38 1003.99 1003.69 1003.49 1003.50 1003.33 1003.27 1003.31 1003.65 1003.94 1004.13 1004.36 1004.57 1004.48 1004.64 1004.73 1004.76 1005.03 1005.24 1005.28 1005.41 1005.69 1006.01 1006.26 1006.16 1005.95 1006.05 1006.45 1006.44 1006.41 1006.42 1006.68 1006.89 1007.04
1006.69 1006.08 1005.34 1004.51 1003.90 1003.74 1003.51 1002.89 1002.58 1002.55 1002.56 1002.73 1003.03 1003.47 1003.63 1003.94 1003.92 1004.07 1004.15 1004.12 1004.00 1004.39 1004.56 1004.55 1004.77 1005.11 1005.42 1005.80 1005.78 1005.56 1005.54 1005.49 1005.69 1005.65 1005.82 1006.01 1006.19 1006.37
1006.32 1005.64 1004.99 1004.40 1003.63 1003.21 1003.09 1002.89 1002.93 1002.34 1002.30 1002.43 1002.62 1002.86 1003.04 1003.14 1003.22 1003.51 1003.58 1003.74 1003.57 1003.65 1003.72 1003.80 1003.83 1004.29 1004.94 1005.06 1005.00 1004.88 1004.56 1004.67 1004.94 1005.02 1005.18 1005.36 1005.55 1005.72
1006.25 1005.60 1004.78 1004.09 1003.69 1003.26 1002.82 1002.61 1002.38 1002.37 1002.31 1002.22 1002.20 1002.28 1002.41 1002.44 1002.78 1002.98 1003.04 1002.96 1002.76 1002.91 1003.43 1002.91 1003.14 1003.54 1004.04 1004.04 1004.38 1004.41 1004.05 1004.24 1004.44 1004.57 1004.79 1004.87 1004.96 1005.14
1006.00 1005.55 1004.95 1004.32 1003.86 1003.56 1003.03 1002.65 1002.59 1002.83 1002.65 1002.57 1002.42 1002.53 1002.86 1002.96 1002.97 1002.98 1002.90 1002.77 1002.58 1003.12 1003.38 1003.25 1003.15 1003.49 1004.01 1004.21 1004.22 1003.97 1003.91 1003.97 1004.03 1004.23 1004.37 1004.62 1004.67 1004.80
1005.96 1005.77 1005.34 1004.86 1004.31 1003.74 1003.41 1003.09 1003.27 1003.56 1003.61 1003.41 1003.59 1003.69 1003.81 1003.76 1003.50 1003.12 1003.12 1003.36 1003.17 1003.50 1004.25 1004.03 1004.07 1004.10 1004.22 1004.47 1004.74 1004.64 1004.36 1004.18 1004.37 1004.58 1004.82 1005.00 1004.99 1004.86
1006.68 1006.37 1006.04 1005.58 1004.97 1004.22 1003.43 1003.13 1003.33 1003.77 1003.96 1004.09 1004.32 1004.38 1004.38 1004.48 1004.41 1004.31 1004.07 1003.89 1004.00 1004.62 1005.32 1005.29 1004.94 1004.91 1005.08 1005.02 1005.05 1005.02 1004.83 1004.89 1004.90 1004.96 1004.97 1005.14 1005.19 1005.08
1007.04 1006.82 1006.73 1006.34 1005.74 1005.19 1004.58 1004.15 1004.00 1004.14 1004.45 1004.67 1004.91 1005.11 1005.27 1005.40 1005.47 1005.58 1005.40 1005.01 1005.21 1005.47 1005.88 1005.64 1005.48 1005.25 1005.34 1005.33 1005.37 1005.37 1005.31 1005.38 1005.29 1005.19 1005.26 1005.31 1005.30 1005.34
1007.69 1007.54 1007.26 1006.90 1006.51 1006.11 1005.79 1005.59 1005.39 1005.31 1005.30 1005.44 1005.60 1005.88 1005.93 1005.94 1006.03 1006.10 1006.40 1006.09 1005.95 1006.16 1006.15 1005.93 1005.79 1005.83 1005.79 1005.80 1005.68 1005.67 1005.47 1005.38 1005.34 1005.17 1005.22 1005.34 1005.23 1005.09
1007.88 1007.84 1007.77 1007.33 1007.03 1006.88 1006.73 1006.51 1006.54 1006.59 1006.33 1006.43 1006.55 1006.73 1006.86 1006.92 1006.62 1006.61 1006.44 1006.25 1006.27 1006.44 1006.40 1006.35 1006.10 1005.84 1006.14 1005.95 1005.54 1005.78 1005.87 1005.56 1005.46 1005.29 1005.24 1005.05 1004.85 1004.75
1008.34 1008.00 1007.87 1007.94 1007.81 1007.40 1007.16 1007.12 1007.03 1007.03 1007.26 1007.39 1007.36 1007.31 1007.25 1006.99 1006.89 1006.96 1006.90 1006.77 1006.76 1006.65 1006.59 1006.68 1006.79 1006.75 1006.56 1006.42 1006.35 1006.08 1005.84 1005.60 1005.08 1005.15 1005.10 1004.81 1004.49 1004.28
1008.67 1008.42 1008.12 1008.01 1008.03 1008.08 1007.92 1007.64 1007.43 1007.44 1007.40 1007.50 1007.54 1007.51 1007.49 1007.44 1007.32 1007.26 1007.27 1007.24 1007.07 1006.88 1006.66 1006.43 1006.39 1006.33 1006.10 1005.94 1005.73 1005.37 1005.22 1005.02 1004.70 1004.49 1004.35 1003.93 1003.66 1003.56
1008.71 1008.60 1008.51 1008.39 1008.38 1008.45 1008.26 1008.23 1008.29 1008.10 1007.81 1007.47 1007.48 1007.59 1007.56 1007.51 1007.50 1007.57 1007.51 1007.41 1007.18 1006.90 1006.63 1006.35 1006.09 1005.71 1005.33 1005.04 1005.00 1004.79 1004.68 1004.46 1004.26 1004.37 1004.34 1003.81 1002.79 1002.94
1008.66 1008.52 1008.53 1008.68 1008.82 1008.79 1008.90 1008.75 1008.69 1008.68 1008.66 1008.38 1008.01 1007.68 1007.62 1007.61 1007.52 1007.37 1007.29 1007.16 1006.92 1006.70 1006.51 1006.33 1006.16 1006.02 1005.57 1005.08 1004.58 1004.48 1004.69 1004.46 1004.28 1004.09 1004.08 1003.85 1003.13 1002.59
1008.78 1008.51 1008.55 1008.72 1008.88 1009.28 1009.27 1009.20 1009.11 1009.13 1009.08 1008.94 1008.64 1008.09 1007.66 1007.32 1007.22 1007.15 1007.01 1006.80 1006.54 1006.40 1006.34 1006.22 1005.99 1005.82 1005.63 1005.28 1004.92 1004.54 1004.26 1004.24 1004.15 1003.85 1003.73 1003.66 1003.51 1002.82
1008.80 1008.77 1008.68 1008.79 1008.99 1009.26 1009.53 1009.45 1009.14 1008.88 1008.77 1008.72 1008.70 1008.51 1008.11 1007.64 1007.07 1006.71 1006.62 1006.48 1006.37 1006.34 1006.09 1005.96 1005.79 1005.55 1005.42 1005.18 1004.88 1004.35 1004.01 1004.06 1004.12 1004.00 1003.73 1003.55 1003.16 1002.49
1008.49 1008.53 1008.66 1008.88 1009.21 1009.39 1009.45 1009.41 1009.27 1009.14 1008.81 1008.42 1008.18 1008.25 1008.16 1007.88 1007.45 1006.89 1006.41 1006.23 1006.17 1006.18 1006.05 1005.81 1005.55 1005.42 1005.42 1005.21 1004.66 1004.42 1004.43 1004.01 1003.64 1003.29 1003.11 1003.17 1002.97 1002.11
1008.29 1008.44 1008.50 1008.72 1009.05 1009.26 1009.46 1009.55 1009.41 1009.27 1008.92 1008.49 1008.29 1008.19 1007.93 1007.82 1007.54 1007.11 1006.77 1006.46 1006.07 1005.72 1005.68 1005.60 1005.45 1005.37 1005.33 1005.40 1005.20 1004.71 1004.32 1004.13 1003.69 1003.02 1002.53 1002.24 1002.02 1001.51
Wind_Speed
11 12 11 10 10 11 11 12 12 13 12 10 8 10 10 10 11 13 13 16 22 19 22 23 19 15 17 16 16 19 20 19 17 17 18 19 20 21
9 13 13 10 12 11 11 12 11 12 13 10 8 7 7 7 9 13 14 11 14 18 20 19 18 16 17 16 15 18 19 20 20 20 21 21 21 22
13 13 15 15 11 11 11 11 11 11 11 10 8 8 6 8 7 9 10 11 9 15 17 16 16 15 15 15 15 17 17 17 17 21 21 23 23 22
14 14 15 11 15 14 12 14 12 12 10 15 10 8 9 10 10 10 7 7 8 9 12 13 13 13 13 14 15 17 16 17 18 21 18 21 20 22
13 14 16 15 14 12 13 12 10 12 11 11 10 7 8 5 7 7 7 6 5 8 12 12 14 14 15 15 16 14 14 17 21 20 18 18 19 19
13 13 15 15 15 14 12 12 10 13 10 9 9 6 6 5 5 5 6 5 6 5 9 9 7 10 14 13 14 14 15 16 16 16 17 16 16 17
12 13 13 13 13 13 7 9 9 8 7 8 7 6 6 4 6 4 6 6 7 5 6 6 6 6 7 12 16 16 15 14 15 15 15 16 16 15
13 11 11 13 11 11 12 14 8 7 7 6 7 7 8 7 7 8 8 6 6 7 5 5 5 5 7 7 14 14 11 14 15 15 14 14 14 15
12 11 10 7 8 9 9 9 6 5 7 7 8 9 8 9 8 9 9 8 8 3 7 4 4 6 7 6 11 12 10 11 12 13 15 14 13 12
9 10 9 10 8 9 6 5 2 6 4 4 7 4 2 3 4 3 4 6 4 2 2 3 2 4 2 3 7 4 6 5 2 1 2 2 2 4
7 9 8 8 12 13 7 3 3 5 11 17 16 15 15 15 10 2 3 3 4 1 5 1 2 2 2 2 4 11 13 14 14 12 10 9 7 5
7 9 17 14 18 17 6 4 5 3 4 5 5 9 11 11 17 9 3 1 2 2 3 2 1 1 1 1 0 2 3 10 9 9 9 9 9 3
5 5 7 18 18 19 17 9 6 6 8 6 5 5 6 7 6 7 7 5 2 2 3 1 2 1 1 1 2 1 3 3 2 3 5 5 5 5
4 4 5 13 17 19 13 15 14 9 4 5 5 5 4 5 4 5 6 4 4 3 3 2 1 2 2 2 2 1 1 2 1 4 1 1 5 3
5 8 11 11 12 11 17 17 14 6 5 5 5 5 4 3 4 2 4 5 4 5 4 3 2 2 1 2 3 3 4 2 4 1 3 4 4 4
5 4 6 8 11 9 8 9 6 6 5 4 4 3 2 4 5 5 5 5 2 2 4 4 2 0 2 4 5 6 5 4 3 6 5 5 5 5
2 2 3 3 4 4 5 5 5 5 5 4 4 4 4 4 4 4 3 3 3 2 3 2 1 4 6 6 5 6 6 6 5 5 5 8 8 7
2 2 3 3 3 3 3 3 5 5 4 3 3 3 3 3 3 3 2 2 3 3 3 3 2 3 2 3 10 5 4 5 5 4 4 8 10 7
1 1 1 2 2 2 2 2 2 3 3 3 2 2 1 0 1 0 1 2 2 3 4 4 4 3 5 5 2 8 3 4 5 6 5 6 10 11
1 1 1 1 1 1 1 2 2 2 3 3 3 2 1 1 2 3 3 3 3 3 4 4 4 4 4 4 5 5 6 4 5 7 8 7 10 20
2 2 1 1 1 1 1 2 2 3 3 3 4 5 4 3 3 2 2 6 7 3 4 4 5 12 4 4 6 5 4 6 7 7 7 7 8 8
3 2 2 1 2 1 0 1 1 2 3 3 3 4 5 5 5 5 3 3 3 4 5 4 6 4 2 4 7 9 7 7 7 13 14 14 6 5
4 4 3 2 3 2 0 1 1 2 3 3 3 5 5 5 5 5 5 5 4 3 4 5 4 1 2 3 7 7 8 5 3 4 3 8 13 17
Wind_Direction
255 253 252 252 250 251 252 248 252 253 244 237 238 219 226 223 223 217 216 219 224 229 225 237 239 235 236 228 234 237 238 237 231 222 220 221 225 227
254 257 255 252 251 245 242 247 242 243 260 252 235 234 213 229 231 225 228 217 220 222 227 229 231 230 236 234 228 239 240 237 232 231 226 226 224 224
261 259 260 259 257 257 250 243 242 236 239 248 246 237 226 232 235 230 234 230 231 222 226 230 230 227 230 235 234 234 239 242 239 237 235 236 231 225
270 268 264 264 262 256 252 250 243 237 232 245 230 224 226 232 245 234 230 222 229 218 211 221 233 240 237 230 225 230 227 235 235 237 235 239 237 232
280 277 271 267 262 259 244 240 237 236 223 237 233 220 228 218 229 231 231 224 227 236 236 239 238 236 240 240 231 225 223 225 226 224 230 232 235 232
287 281 279 268 258 262 259 251 239 247 225 231 227 215 217 204 219 233 232 217 232 209 220 228 233 242 246 253 244 235 233 231 234 234 232 227 227 228
294 292 287 285 266 270 271 251 246 236 235 234 229 218 213 201 223 221 240 249 231 216 230 223 213 233 250 248 255 241 237 236 237 231 228 228 227 227
293 295 296 299 286 270 257 258 240 231 231 225 225 219 222 226 224 228 236 228 249 196 219 222 176 216 236 237 244 243 233 237 241 233 233 233 232 229
283 291 292 286 287 297 291 276 245 181 234 240 227 222 227 222 220 227 223 228 240 221 227 234 147 203 226 235 238 235 230 227 227 232 235 229 229 235
282 288 308 320 338 328 305 289 21 22 306 258 264 279 343 335 251 281 271 257 256 140 333 251 110 224 183 102 34 98 96 94 113 110 12 333 320 271
32 24 14 358 346 338 304 236 138 94 71 79 78 70 55 36 10 235 214 214 252 121 18 15 22 341 346 92 85 75 75 82 76 62 55 41 29 29
19 25 24 20 14 4 316 226 183 146 116 80 51 42 44 35 31 33 19 74 68 69 7 289 292 51 239 24 155 44 80 51 50 41 50 33 9 359
37 40 29 30 29 27 35 32 49 91 87 76 65 50 44 42 34 24 24 42 25 78 353 20 4 28 102 337 327 27 31 359 7 54 11 7 19 348
33 24 24 37 42 40 38 42 47 53 57 66 63 49 47 40 33 37 21 18 42 46 11 17 72 11 21 337 283 335 288 324 55 337 336 299 312 286
46 37 35 48 52 49 48 48 41 31 42 53 58 55 41 27 44 43 30 28 58 41 31 18 29 21 316 283 317 312 327 288 326 80 320 311 307 302
33 51 53 47 49 61 59 49 48 59 55 50 46 47 33 32 43 43 29 14 22 20 48 42 61 184 264 253 262 269 273 291 291 305 293 283 288 293
341 9 51 50 47 39 47 56 74 66 65 57 50 40 37 28 29 22 26 17 33 351 338 316 258 232 226 226 259 257 269 273 283 301 314 312 307 305
347 0 27 42 47 32 44 42 32 38 45 79 72 48 43 28 18 2 358 341 339 332 318 311 310 328 313 242 218 271 286 286 291 297 297 308 300 308
326 14 23 16 18 53 39 51 61 43 18 29 52 92 103 83 54 89 360 346 342 331 325 335 327 326 316 311 298 217 260 288 300 300 294 298 299 300
288 301 330 342 41 25 35 38 35 18 23 6 2 358 18 27 3 359 352 338 327 327 327 314 309 304 294 305 306 291 234 274 281 299 299 294 282 286
246 264 266 192 114 106 20 17 32 41 62 29 2 343 343 341 339 337 328 337 338 333 320 312 300 309 287 284 274 279 299 305 281 271 280 288 287 282
234 231 223 224 159 156 83 61 37 27 18 17 3 343 328 326 321 318 312 316 317 309 299 287 296 307 291 289 293 300 304 300 290 274 260 237 255 279
217 220 212 208 174 172 46 348 352 342 326 338 346 345 323 316 314 307 306 301 295 287 293 299 294 286 301 288 288 288 287 290 303 311 289 248 261 267